Tracking 31027 objects as of 19-Jul-2025
HD Live streaming from Space Station
objects crossing your sky now

COSMOS 2251 DEB

Track COSMOS 2251 DEB now!
10-day predictions


NORAD ID: 33836
Int'l Code: 1993-036CD
Perigee: 632.3 km
Apogee: 664.3 km
Inclination: 74.0 °
Period: 97.5 minutes
Semi major axis: 7019 km
RCS: 0.034 m2 (small)
Launch date: June 16, 1993
Source: Commonwealth of Independent States (former USSR) (CIS)
Launch site: PLESETSK MISSILE AND SPACE COMPLEX (PKMTR)

Note: This is SATELLITE DEBRIS
Your satellite tracking list
SL-8 DEB
Track 1 satellite(s)




NASA's NSSDC Master Catalog

Two Line Element Set (TLE):
1 33836U 93036CD  25199.41753456  .00005730  00000-0  82801-3 0  9992
2 33836  73.9972 188.7802 0022792  70.7216  79.8248 14.76245928619126
Source of the keplerian elements: AFSPC